Location: Viterbo
(42.4170°N, 12.1000°E)
Time: 12:56:40
(UTC+02:00)

ISS - Visible Passes

Search period start: 11 May 2021 00:00
Search period end: 21 May 2021 00:00
Orbit: 417 x 422 km, 51.6° (Epoch: 11 May)

Date Brightness Start Highest point End Pass type
(mag) Time Alt. Az. Time Alt. Az. Time Alt. Az.
11 May -1.0 02:04:21 19° N 02:04:21 19° N 02:06:20 10° NE visible
11 May -0.9 03:39:01 10° NW 03:41:28 18° N 03:43:55 10° NE visible
11 May -2.6 05:15:36 10° NW 05:18:53 46° NNE 05:22:09 10° ESE visible
12 May -0.6 01:18:16 14° NNE 01:18:16 14° NNE 01:18:56 10° NE visible
12 May -0.8 02:51:29 10° NW 02:53:48 17° N 02:56:08 10° NE visible
12 May -1.9 04:28:15 10° NW 04:31:21 33° NNE 04:34:28 10° E visible
13 May -0.9 02:05:02 15° NNW 02:06:08 17° N 02:08:26 10° NE visible
13 May -1.4 03:40:55 10° NW 03:43:47 25° NNE 03:46:40 10° ENE visible
13 May -3.8 05:17:29 10° WNW 05:20:51 69° SW 05:24:12 10° SE visible
14 May -0.8 01:18:39 18° N 01:18:39 18° N 01:20:53 10° NE visible
14 May -1.1 02:53:31 10° NW 02:56:11 21° NNE 02:58:50 10° ENE visible
14 May -3.5 04:30:03 10° NW 04:33:26 73° NNE 04:36:48 10° ESE visible
14 May -2.2 21:14:46 10° S 21:17:01 17° SE 21:19:17 10° E visible
14 May -3.3 22:50:11 10° WSW 22:53:31 62° NNW 22:55:36 21° NE visible
15 May -1.0 00:28:16 10° WNW 00:30:50 20° NNW 00:33:24 10° NE visible
15 May -0.9 02:06:05 10° NW 02:08:32 18° N 02:10:59 10° NE visible
15 May -2.7 03:42:41 10° NW 03:45:57 47° NNE 03:49:13 10° ESE visible
15 May -3.9 22:02:44 10° SW 22:06:04 81° SE 22:09:27 10° ENE visible
15 May -1.3 23:40:25 10° WNW 23:43:13 23° NNW 23:46:00 10° NE visible
16 May -0.8 01:18:33 10° NW 01:20:53 17° N 01:23:12 10° NE visible
16 May -2.0 02:55:19 10° NW 02:58:26 33° NNE 03:01:32 10° E visible
16 May -3.3 04:32:06 10° WNW 04:35:18 39° SW 04:38:28 10° SSE visible
16 May -3.5 21:15:28 10° SW 21:18:41 47° SE 21:21:56 10° ENE visible
16 May -1.7 22:52:36 10° W 22:55:37 30° NNW 22:58:39 10° NE visible
17 May -0.7 00:30:54 10° NW 00:33:12 17° N 00:35:31 10° NE visible
17 May -1.5 02:07:58 10° NW 02:10:51 25° NNE 02:13:44 10° ENE visible
17 May -3.9 03:45:03 14° WNW 03:47:55 68° SW 03:51:15 10° SE visible
17 May -2.4 22:04:52 10° W 22:08:05 41° NNW 22:11:18 10° NE visible
17 May -0.8 23:43:09 10° NW 23:45:32 18° N 23:47:56 10° NE visible
18 May -1.1 01:20:35 10° NW 01:22:57 21° N 01:22:57 21° N visible
18 May -3.2 21:17:15 10° WSW 21:20:35 62° NNW 21:23:55 10° NE visible
18 May -1.0 22:55:19 10° WNW 22:57:54 20° NNW 23:00:27 10° NE visible
19 May -1.0 00:33:09 10° NW 00:35:36 18° N 00:36:34 16° NNE visible
19 May -1.2 22:07:29 10° WNW 22:10:16 23° NNW 22:13:03 10° NE visible
19 May -0.8 23:45:37 10° NW 23:47:56 17° N 23:50:15 10° NE visible
20 May -1.0 01:22:22 10° NW 01:23:19 16° NW 01:23:19 16° NW visible
20 May -1.6 21:19:40 10° W 21:22:40 29° NNW 21:25:41 10° NE visible
20 May -0.8 22:57:58 10° NW 23:00:15 17° N 23:02:33 10° NE visible
